Location: Dzierzno
(50.6159°N, 19.2852°E)
Time: 21:33:17
(UTC+00:00)

Cosmos 2082 Rocket - Pass Details

Date: 18 November 2025
Orbit: 834 x 851 km, 71.0° (Epoch: 04 December)

Event Time Altitude Azimuth Distance (km) Brightness Sun altitude
Rises 17:31:49 0° 324° (NW) 3,392 5.8 -24.9°
Reaches altitude 10° 17:34:28 10° 316° (NW) 2,453 5.1 -25.3°
Maximum altitude 17:39:25 33° 254° (WSW) 1,373 3.8 -26.1°
Drops below altitude 10° 17:44:21 10° 192° (SSW) 2,441 4.7 -26.9°
Sets 17:46:59 0° 183° (S) 3,372 5.3 -27.3°
